Location: Babice
(50.3480°N, 22.9363°E)
Time: 11:52:28
(UTC+00:00)

CZ-4B R/B - Pass Details

Date: 14 July 2020
Orbit: 702 x 803 km, 98.9° (Epoch: 07 August)

Event Time Altitude Azimuth Distance (km) Brightness Sun altitude
Rises 00:37:41 0° 16° (NNE) 3,261 8.5 -13.0°
Reaches altitude 10° 00:40:02 10° 17° (NNE) 2,314 7.4 -12.8°
Maximum altitude 00:45:09 80° 105° (ESE) 767 3.5 -12.4°
Enters shadow 00:49:14 15° 192° (SSW) 1,908 5.0 -12.1°
